This is the latest recevied weather packets stored in our database for station/object ALTO-WX. If no packets are shown the sender has not sent any weather packets the latest 10 day(s).
| Time | Temp. | Humidity | Pressure | Rain* | Wind** | Luminosity | Snow |
|---|---|---|---|---|---|---|---|
| 1778050861 | 5° C | 67% | 979.3 hPa | 0 mm | - | - | - |
| 1778049936 | 5° C | 67% | 979.7 hPa | 0 mm | - | - | - |
| 1778049053 | 5.56° C | 67% | 979.7 hPa | 0 mm | - | - | - |
| 1778048136 | 5.56° C | 67% | 979.7 hPa | 0 mm | - | - | - |
| 1778047273 | 5.56° C | 67% | 979.7 hPa | 0 mm | - | - | - |
| 1778046336 | 5.56° C | 66% | 980.1 hPa | 0 mm | - | - | - |
| 1778045451 | 6.11° C | 68% | 979.7 hPa | 0 mm | - | - | - |
| 1778044536 | 6.11° C | 68% | 979.7 hPa | 0 mm | - | - | - |
| 1778043670 | 6.11° C | 68% | 979.7 hPa | 0 mm | - | - | - |
| 1778042736 | 6.11° C | 63% | 980.3 hPa | 0 mm | - | - | - |
| 1778041851 | 6.11° C | 66% | 979.8 hPa | 0 mm | - | - | - |
| 1778040936 | 6.11° C | 66% | 979.8 hPa | 0 mm | - | - | - |
| 1778040072 | 6.67° C | 66% | 979.8 hPa | 0 mm | - | - | - |
| 1778039133 | 6.67° C | 59% | 979.5 hPa | 0 mm | - | - | - |
| 1778037335 | 6.67° C | 59% | 979.4 hPa | 0 mm | - | - | - |
| 1778036473 | 7.22° C | 59% | 979.4 hPa | 0 mm | - | - | - |
| 1778035535 | 7.22° C | 51% | 979.5 hPa | 0 mm | - | - | - |
| 1778034653 | 7.22° C | 49% | 979.6 hPa | 0 mm | - | - | - |
| 1778033734 | 7.22° C | 49% | 979.6 hPa | 0 mm | - | - | - |
| 1778032858 | 7.78° C | 49% | 979.6 hPa | 0 mm | - | - | - |
| 1778031934 | 7.78° C | 44% | 979.3 hPa | 0 mm | - | - | - |
| 1778031056 | 8.33° C | 44% | 979.3 hPa | 0 mm | - | - | - |
| 1778030135 | 8.33° C | 44% | 979.4 hPa | 0 mm | - | - | - |
| 1778029260 | 8.89° C | 44% | 979.4 hPa | 0 mm | - | - | - |
| 1778028334 | 9.44° C | 38% | 979.3 hPa | 0 mm | - | - | - |
* Rain latest hour (hover to see other rain measurements)
** Current wind speed in m/s (hover to see current wind gust speed)